Terminal Aerodrome Forecast
Issued by NWS

Home | Current Version | Previous Version | Text Only | Print | Product List | Glossary On
Versions: 1 2 3 4 5 6 7 8 9 10 11 12 13 14 15 16 17
000
FTAK31 PAJN 041100
TAFAWG
TAF
PAWG 041122Z 0412/0512 14005KT P6SM SCT120
     FM041800 33010KT P6SM FEW150
     FM050500 13004KT P6SM SKC
      AMD LTD TO CLD VIS AND WIND 0412/0415=

USA.gov is the U.S. government's official web portal to all federal, state and local government web resources and services.